Location: Eschentzwiller
(47.7125°N, 7.3981°E)
Time: 07:31:17
(UTC+00:00)

Daily predictions for brighter satellites

Satellite Brightness Start Highest point End
(mag) Time Altitude Azimuth Time Altitude Azimuth Time Altitude Azimuth
USA 281 3.3 16:41:41 10° SSE 16:48:15 87° ENE 16:54:53 10° NNW
FALCON 9 DEB 3.9 16:49:01 10° SSW 16:51:58 34° SE 16:54:54 10° ENE
Landsat 5 4.0 16:48:35 10° N 16:52:24 59° WNW 16:56:18 10° SSW
CZ-2C R/B 4.3 16:49:21 10° ESE 16:53:50 24° ENE 16:58:13 10° N
Meteor 2-14 Rocket 4.4 16:47:50 10° N 16:54:00 71° E 17:00:06 10° SSE
SMAP 3.1 16:49:32 10° SSE 16:54:11 89° WSW 16:58:53 10° NNW
Cosmos 2219 3.6 16:49:13 10° NNW 16:54:45 44° NE 17:00:14 10° SE
Cosmos 1726 Rocket 3.9 16:53:00 10° SSE 16:57:04 41° E 17:01:12 10° NNE
Cosmos 1943 Rocket 4.4 16:53:10 10° W 16:57:06 19° NW 17:01:01 10° N
Cosmos 1758 Rocket 3.7 16:55:02 10° N 16:59:27 84° W 17:03:48 10° S
USA 307 3.6 16:56:37 10° WNW 17:00:41 40° NNE 17:04:41 10° E
Meteor 2-21 4.5 16:54:30 10° N 17:00:43 83° E 17:06:49 10° S
Cosmos 1328 4.2 16:57:03 10° NNW 17:00:59 67° W 17:04:54 10° S
FALCON 9 DEB 3.6 17:00:51 10° SW 17:03:55 41° SE 17:06:44 12° ENE
Cosmos 2228 3.0 16:59:54 10° S 17:04:05 65° E 17:08:21 10° NNE
YAOGAN 6 3.7 17:00:57 10° S 17:04:30 50° W 17:08:07 10° NNW
Cosmos 1939 Rocket 3.3 17:01:30 10° SE 17:05:11 38° ENE 17:08:50 10° N
USA 308 3.6 17:01:27 10° WNW 17:05:33 41° NNE 17:09:20 12° E
CZ-4B R/B 1.3 17:02:27 10° NNE 17:05:40 58° E 17:08:45 10° S
ATLAS 5 CENTAUR R/B 3.7 17:04:25 10° WNW 17:07:39 20° NNW 17:11:14 10° NNE
Helios 1A Rocket 3.6 17:08:42 10° SE 17:12:24 34° ENE 17:16:07 10° N
Cosmos 1606 Rocket 3.5 17:08:17 10° S 17:12:38 76° E 17:17:03 10° NNE
GENESIS II 4.3 17:11:24 10° SW 17:15:26 86° NW 17:19:30 10° NE
FALCON 9 DEB 3.2 17:12:23 10° SW 17:15:32 54° SSE 17:17:56 16° ENE
CZ-4B R/B 4.1 17:10:50 10° S 17:16:19 56° WSW 17:21:45 10° NNW
ARGOS 4.4 17:13:32 10° ESE 17:17:24 20° ENE 17:21:16 10° NNE
Okean-O 3.2 17:14:49 10° SE 17:18:52 36° ENE 17:22:56 10° N
SKYMED 2 3.9 17:15:39 10° NNE 17:19:49 43° E 17:23:57 10° S
Cosmos 1689 Rocket 2.7 17:18:23 10° NNE 17:21:03 33° E 17:23:41 10° SSE
Cosmos 1656 4.1 17:16:27 10° S 17:21:33 39° ESE 17:26:45 10° NE
Cosmos 1400 Rocket 3.1 17:20:25 10° S 17:24:22 48° E 17:28:19 10° NNE
Cosmos 1745 Rocket 4.4 17:18:52 10° N 17:24:42 39° ENE 17:30:34 10° SE
H-2A R/B 3.0 17:22:09 10° ESE 17:26:47 30° ENE 17:31:28 10° N
PSLV R/B 4.3 17:24:06 10° NNE 17:28:07 42° E 17:32:02 10° S
Cosmos 2227 Rocket 2.2 17:23:11 10° NNW 17:28:47 59° ENE 17:34:22 10° SE
GEOS 3 Rocket 4.2 17:24:32 13° ESE 17:28:54 40° NE 17:33:55 10° NNW
CZ-4 R/B 1.7 17:25:33 10° SE 17:29:10 38° ENE 17:32:45 10° N
Cosmos 2058 3.7 17:25:52 10° N 17:29:30 30° ENE 17:33:07 10° SE
Meteor 2-16 Rocket 4.4 17:23:36 10° N 17:29:44 89° E 17:35:50 10° S
Cosmos 1892 3.1 17:27:13 10° N 17:30:54 40° ENE 17:34:35 10° SSE
Cosmos 2263 Rocket 3.8 17:30:14 10° N 17:33:52 17° NE 17:35:34 15° ENE
CSL-04 Rocket 4.3 17:30:06 10° SE 17:35:04 35° ENE 17:40:02 10° N
Cosmos 1408 3.4 17:31:50 10° NNE 17:35:04 29° ENE 17:37:15 16° SE
BREEZE-M R/B 3.8 17:26:09 10° W 17:35:24 74° N 17:37:09 24° ENE
Cosmos 1244 Rocket 4.5 17:31:05 10° N 17:37:20 85° E 17:43:36 10° S
CZ-4C R/B 4.0 17:35:09 10° NW 17:40:17 24° NNE 17:44:24 15° ENE
Cosmos 1953 Rocket 4.2 17:37:24 10° NNW 17:41:46 60° W 17:46:08 10° S
Cosmos 1300 3.3 17:38:59 10° SSW 17:42:45 60° WNW 17:46:33 10° N
Cosmos 2058 Rocket 3.0 17:41:32 10° S 17:46:01 84° E 17:50:33 10° N
Cosmos 1697 Rocket 3.3 17:41:13 10° SSE 17:46:10 33° ESE 17:49:37 18° NE
SL-4 R/B 2.3 17:44:09 10° WNW 17:47:36 45° N 17:49:04 29° ENE
IRS-1C Rocket 4.2 17:42:39 10° SSE 17:47:55 79° WSW 17:53:13 10° NNW
CZ-2D R/B 3.1 17:44:16 10° SSE 17:48:04 83° ENE 17:51:54 10° NNW
SeaSat 1 3.2 17:46:27 24° E 17:48:24 32° NE 17:52:46 10° NNW
Cosmos 1346 Rocket 2.9 17:45:57 10° N 17:49:50 49° ENE 17:53:43 10° SSE
NOSS 3-3 (A) 4.4 17:45:33 10° S 17:50:49 38° ESE 17:54:17 21° ENE
NOSS 3-3 (C) 4.4 17:45:39 10° S 17:50:57 38° ESE 17:54:24 21° ENE
USA 305 3.0 17:47:21 10° WNW 17:51:38 59° NNE 17:53:27 31° E
Cosmos 1825 3.0 17:48:41 10° N 17:51:38 29° ENE 17:51:38 29° ENE
Cosmos 1709 Rocket 4.5 17:48:35 10° N 17:54:29 38° ENE 17:59:42 13° SE
Cosmos 44 3.6 17:50:07 10° SW 17:54:36 61° NW 17:59:05 12° NNE
Cosmos 1315 Rocket 3.3 17:51:55 10° SSE 17:55:34 36° E 17:56:19 33° ENE
USA 215 3.8 17:51:39 21° ENE 17:55:38 44° NNE 18:01:44 10° WNW
SJ-11-01 4.5 17:53:43 12° SE 17:57:53 47° ENE 18:02:23 10° N
USA 306 3.0 17:53:46 10° WNW 17:58:02 63° NNE 17:59:35 36° E
ERS-2 4.2 17:55:55 10° N 17:59:05 28° WNW 18:02:15 10° SW
SAR-Lupe-4 4.5 17:55:37 10° N 17:59:06 49° WNW 18:02:34 10° SSW
BREEZE-M R/B 3.6 17:57:36 10° WNW 18:01:32 75° N 18:05:18 28° E
ATLAS 2AS CENTAUR R/B 3.6 17:55:10 10° NW 18:02:09 36° NNE 18:05:17 26° ENE
Cosmos 968 Rocket 3.4 17:58:57 10° NNW 18:04:13 89° WSW 18:09:24 10° SSE
Cosmos 1340 3.5 18:01:01 10° NNW 18:04:43 53° W 18:08:23 10° S
COSMO-SKYMED 1 3.1 18:03:37 10° N 18:07:56 61° WNW 18:12:12 10° SSW
Cosmos 2297 Rocket 2.7 18:03:03 10° NNW 18:08:39 61° WSW 18:14:12 10° S
MOS 1 Rocket 3.5 18:04:11 10° NNE 18:08:43 49° E 18:13:30 10° S
Cosmos 1980 Rocket 3.3 18:04:15 10° SSE 18:07:19 24° SE 18:07:19 24° SE
Cosmos 1076 Rocket 3.4 18:05:40 10° N 18:09:52 57° ENE 18:11:35 32° SE
Aureole 3 Rocket 3.8 18:07:43 10° SSW 18:11:41 59° WNW 18:17:12 10° N
Cosmos 2315 Rocket 4.3 18:09:26 10° SSE 18:15:06 39° E 18:20:48 10° NNE
CSL-04 Debris 4.1 18:09:58 10° SSE 18:15:23 74° ENE 18:20:52 10° NNW
S3M 3.8 18:09:26 10° S 18:15:31 75° E 18:21:42 10° NNE
Lacrosse 5 3.1 18:17:48 10° NW 18:22:14 29° N 18:23:30 26° NNE
FALCON 9 DEB 3.9 18:19:15 10° WNW 18:22:07 41° N 18:22:07 41° N
YAOGAN 1 2.9 18:18:51 10° S 18:23:09 67° WSW 18:27:28 10° NNW
FALCON 9 DEB 3.6 18:20:32 10° W 18:23:30 52° NW 18:23:30 52° NW
ERBS 4.5 18:22:08 10° NW 18:24:02 17° N 18:24:02 17° N
Cosmos 2360 4.3 18:19:24 10° S 18:24:55 51° ESE 18:26:15 43° ENE
FALCON 9 DEB 3.9 18:24:48 10° W 18:27:30 45° NW 18:27:30 45° NW
Cosmos 1812 Rocket 3.4 18:26:02 10° S 18:30:25 72° E 18:30:37 71° ENE
Cosmos 1455 2.1 18:27:26 10° S 18:31:12 83° W 18:31:14 83° WNW
CZ-2C R/B 3.7 18:27:30 10° S 18:33:15 65° WSW 18:38:53 10° NNW
Cosmos 1503 Rocket 4.0 18:29:18 10° NNW 18:34:32 83° WSW 18:37:11 30° SSE
Meteor 2-3 Rocket 4.5 18:30:31 10° N 18:34:43 36° NE 18:34:43 36° NE
Cosmos 44 Rocket 4.3 18:32:47 10° S 18:35:27 30° S 18:35:27 30° S
Cosmos 2278 4.3 18:32:46 10° S 18:36:45 39° SSE 18:36:45 39° SSE
DMSP B5D1-3 4.5 18:34:00 10° NNE 18:39:11 87° WNW 18:44:21 10° SSW
USA 307 2.9 18:36:44 10° WNW 18:40:52 77° WSW 18:40:52 77° WSW
Meteor 2-10 Rocket 3.9 18:39:26 10° SSW 18:44:41 62° WNW 18:49:47 10° N
USA 308 3.1 18:41:35 10° WNW 18:45:31 69° WSW 18:45:31 69° WSW
Cosmos 1354 Rocket 4.1 18:40:50 10° NNW 18:46:06 76° WSW 18:47:53 42° S
Cosmos 2082 4.0 18:42:04 10° NNW 18:47:45 65° WSW 18:50:45 28° S
ATLAS 5 CENTAUR R/B 4.2 18:51:44 10° NNW 18:54:16 14° N 18:55:01 13° NNE
Cosmos 1992 Rocket 4.4 18:51:41 10° SW 18:56:50 62° WNW 18:59:48 25° N
ARGOS 3.3 18:54:41 34° S 18:57:06 73° WSW 19:02:34 10° NNW
Cosmos 2369 3.7 18:56:05 10° SSW 19:01:48 80° WNW 19:03:11 54° NNE
CZ-4 R/B 3.9 19:01:31 10° SW 19:04:21 19° W 19:07:10 10° NW
H-2A R/B 3.1 19:00:47 10° S 19:05:59 47° W 19:11:16 10° NNW
Ariane Rocket 3.9 19:07:51 40° N 19:07:51 40° N 19:11:07 10° N
GEOS 3 Rocket 4.2 19:05:40 45° SSW 19:06:47 53° SW 19:12:05 10° NW
Geosat 4.4 19:06:42 45° N 19:07:57 59° NW 19:12:53 10° SW
Cosmos 2227 Rocket 4.3 19:07:57 10° NW 19:12:25 24° WSW 19:16:52 10° SSW
Cosmos 2263 Rocket 2.9 19:13:12 10° NNW 19:17:16 46° N 19:17:16 46° N
Atlas Centaur 2 4.4 19:13:41 10° SW 19:19:53 23° S 19:20:08 23° S
SeaSat 1 3.3 19:26:15 46° W 19:26:15 46° W 19:30:33 10° NW
Cosmos 1697 Rocket 3.6 19:24:37 10° SW 19:29:59 45° NW 19:31:25 37° NNW
CZ-4C R/B 3.3 19:23:41 10° NW 19:29:36 49° NNE 19:29:36 49° NNE
NOSS 3-4 (A) 3.7 19:24:43 10° NW 19:31:39 87° W 19:31:39 87° W
NOSS 3-4 (C) 3.7 19:24:50 10° NW 19:31:43 87° W 19:31:43 87° W
DEBRIS 4.3 19:23:58 10° WSW 19:36:49 72° W 19:36:49 72° W
USA 215 3.4 19:39:00 69° NNW 19:39:00 69° NNW 19:44:46 10° NW
Cosmos 1980 Rocket 4.0 19:47:05 10° SW 19:49:11 23° SW 19:49:11 23° SW
ATLAS 2AS CENTAUR R/B 3.1 19:46:23 10° NW 19:52:43 64° NW 19:52:43 64° NW
Lacrosse 5 4.2 20:01:05 10° NW 20:02:41 20° NW 20:02:41 20° NW
